Quincy, IL

7:44 PM CST on November 22, 2019 (GMT -0600)
Quincy Regional-Baldwin

Weather History for KUIN - September, 2019

Change the Weather History Date:

Sunday, September 1, 2019

  Actual Average Record
Temperature  
Mean Temperature 71 °F 72 °F  
Max Temperature 78 °F 82 °F 104 °F (2011)
Min Temperature 64 °F 62 °F 41 °F (1949)
Degree Days  
Heating Degree Days 0 0  
Month to date heating degree days 0 0  
Since 1 July heating degree days 2 5  
Cooling Degree Days 6 7  
Month to date cooling degree days 6 7  
Year to date cooling degree days 1063 960  
Growing Degree Days 21 (Base 50)    
Moisture  
Dew Point 64 °F    
Average Humidity 83    
Maximum Humidity 94    
Minimum Humidity 62    
Precipitation  
Precipitation 0.00 in 0.11 in 1.97 in (1931)
Month to date precipitation 0.00 0.11  
Year to date precipitation 31.03 25.86  
Sea Level Pressure  
Sea Level Pressure 30.09 in    
Wind  
Wind Speed 4 mph ()    
Max Wind Speed 9 mph    
Max Gust Speed 13 mph    
Visibility 9.9 miles    
Events      
T = Trace of Precipitation, MM = Missing Value Source: Averaged Metar Reports

Daily Weather History Graph

Daily Weather History Graph

Search for Another Location

Airport or City:

Astronomy

Sep. 01, 2019 Rise Set
Actual Time 6:32 AM CDT 7:36 PM CDT
Civil Twilight 6:04 AM CDT 8:04 PM CDT
Nautical Twilight 5:31 AM CDT 8:37 PM CDT
Astronomical Twilight 4:56 AM CDT 9:11 PM CDT
Moon 9:02 AM CDT (9/1) 9:24 PM CDT (9/1)
Length of Visible Light 13h 59m
Length of Day
13h 04m
Waxing Crescent, 8% of the Moon is Illuminated
Sep 1
Waxing Crescent
Sep 5
First Quarter
Sep 13
Full
Sep 21
Last Quarter
Sep 28
New

Hourly Weather History & Observations

Time (CDT) Temp. Dew Point Humidity Pressure Visibility Wind Dir Wind Speed Gust Speed Precip Events Conditions
12:54 AM 64.9 °F 62.1 °F 90% 30.11 in 10.0 mi NE 5.8 mph - N/A   Overcast
1:38 AM 64.9 °F 62.1 °F 90% 30.11 in 10.0 mi NNE 5.8 mph - N/A   Overcast
1:54 AM 64.9 °F 62.1 °F 90% 30.10 in 10.0 mi NNE 5.8 mph - N/A   Overcast
2:09 AM 64.9 °F 62.1 °F 90% 30.11 in 10.0 mi North 4.6 mph - N/A   Overcast
2:17 AM 64.9 °F 62.1 °F 90% 30.11 in 10.0 mi NNW 5.8 mph - N/A   Overcast
2:54 AM 64.9 °F 62.1 °F 90% 30.09 in 10.0 mi North 5.8 mph - N/A   Overcast
3:52 AM 64.4 °F 62.6 °F 94% 30.09 in 10.0 mi North 6.9 mph - N/A   Overcast
3:54 AM 64.9 °F 62.1 °F 90% 30.08 in 10.0 mi North 6.9 mph - N/A   Overcast
4:54 AM 64.0 °F 62.1 °F 93% 30.09 in 10.0 mi NNE 6.9 mph - N/A   Overcast
5:44 AM 64.0 °F 61.0 °F 90% 30.09 in 10.0 mi North 5.8 mph - N/A   Overcast
5:54 AM 64.0 °F 61.0 °F 90% 30.09 in 10.0 mi NNE 5.8 mph - N/A   Overcast
6:03 AM 64.0 °F 61.0 °F 90% 30.09 in 10.0 mi North 4.6 mph - N/A   Overcast
6:54 AM 64.0 °F 62.1 °F 93% 30.10 in 10.0 mi NNE 5.8 mph - N/A   Overcast
7:06 AM 64.0 °F 62.1 °F 93% 30.12 in 10.0 mi North 5.8 mph - N/A   Overcast
7:54 AM 64.9 °F 62.1 °F 90% 30.11 in 10.0 mi North 3.5 mph - N/A   Overcast
8:54 AM 66.0 °F 62.1 °F 87% 30.12 in 10.0 mi Calm Calm - N/A   Overcast
9:54 AM 69.1 °F 64.0 °F 84% 30.12 in 10.0 mi NW 4.6 mph - N/A   Overcast
10:54 AM 70.0 °F 64.9 °F 84% 30.12 in 10.0 mi Variable 5.8 mph - N/A   Overcast
11:44 AM 71.1 °F 64.9 °F 81% 30.13 in 10.0 mi NW 6.9 mph - N/A   Overcast
11:54 AM 73.0 °F 66.0 °F 79% 30.12 in 10.0 mi WNW 8.1 mph - N/A   Overcast
12:26 PM 73.0 °F 66.0 °F 79% 30.13 in 10.0 mi NW 5.8 mph - N/A   Overcast
12:54 PM 73.0 °F 64.9 °F 76% 30.11 in 10.0 mi WNW 5.8 mph - N/A   Mostly Cloudy
1:54 PM 73.9 °F 64.0 °F 71% 30.10 in 10.0 mi Calm Calm - N/A   Overcast
2:37 PM 75.0 °F 64.9 °F 71% 30.10 in 10.0 mi Variable 4.6 mph - N/A   Overcast
2:45 PM 75.9 °F 64.9 °F 69% 30.10 in 10.0 mi Calm Calm - N/A   Overcast
2:54 PM 75.9 °F 64.0 °F 67% 30.08 in 10.0 mi Calm Calm - N/A   Overcast
3:54 PM 77.0 °F 64.9 °F 66% 30.07 in 10.0 mi WNW 3.5 mph - N/A   Mostly Cloudy
4:54 PM 78.1 °F 64.9 °F 64% 30.06 in 10.0 mi Variable 3.5 mph - N/A   Scattered Clouds
5:54 PM 78.1 °F 64.0 °F 62% 30.06 in 10.0 mi Calm Calm - N/A   Mostly Cloudy
6:54 PM 75.0 °F 64.9 °F 71% 30.05 in 10.0 mi Calm Calm - N/A   Clear
7:54 PM 73.0 °F 66.0 °F 79% 30.06 in 10.0 mi Calm Calm - N/A   Scattered Clouds
8:15 PM 72.0 °F 66.0 °F 81% 30.07 in 10.0 mi Calm Calm - N/A   Mostly Cloudy
8:25 PM 72.0 °F 66.0 °F 81% 30.08 in 10.0 mi South 3.5 mph - N/A   Mostly Cloudy
8:38 PM 71.1 °F 66.0 °F 84% 30.08 in 10.0 mi SSW 3.5 mph - N/A   Overcast
8:45 PM 71.1 °F 66.0 °F 84% 30.08 in 10.0 mi SSW 4.6 mph - N/A   Overcast
8:54 PM 73.0 °F 66.0 °F 79% 30.07 in 10.0 mi SW 3.5 mph - N/A   Overcast
9:54 PM 70.0 °F 66.0 °F 87% 30.08 in 10.0 mi West 4.6 mph - N/A   Clear
10:54 PM 68.0 °F 64.9 °F 90% 30.09 in 10.0 mi West 3.5 mph - N/A   Clear
11:54 PM 66.9 °F 64.0 °F 90% 30.09 in 8.0 mi Calm Calm - N/A   Clear